アトラス彗星

C/2019 L3 ( ATLAS )

English version
Home page
Updated on July 13, 2025

---------------------------------------------------------------------

・ プロフィール

発見日 2019年6月10日
発見光度 18.1等
発見者 Asteroid Terrestrial-Impact Last Alert System (ATLAS) search program

・ 写真集

・ 軌道要素

Epoch 2024 Oct. 17.0 TT = JDT 2460600.5
T 2022 Jan.  9.96096 TT                                 Pike
q   3.5562116            (2000.0)            P               Q
z  -0.0007877      Peri.  171.69644     -0.26053535     -0.66621614
 +/-0.0000002      Node   290.73324     +0.83732556     +0.20438712
e   1.0028014      Incl.   48.34454     +0.48063213     -0.71720427
From 6551 observations 2019 June 10-2024 Dec. 30, mean residual 0".8.

・ 星図

・ 光度変化

        m1 = -2.5 + 5 logΔ + 17.0 log r(t - 100)  [ ,0]  (              〜2022年 1月 9日)
        m1 = -1.5 + 5 logΔ + 15.0 log r(t - 120)  [0, ]  (2022年 1月 9日〜              )

---------------------------------------------------------------------

軌道要素はM.P.E.C. 2025-A40に掲載されたものです。
星図はステラナビゲータ Ver.10 (アストロアーツ) で作成したものです。
光度グラフはComet for Windowsで作成したものです。

---------------------------------------------------------------------

Copyright(C) Seiichi Yoshida (comet@aerith.net). All rights reserved.